[[{"header":{"parameterUnit":"m.s-1","parameterCategory":1,"la1":30.2991,"la2":30.254,"lo1":-89.0895,"lo2":-89.0444,"dy":0.0017,"dx":0.0017,"nx":28,"ny":28,"refTime":"2025-11-08T03:00:00:Z","depth":0,"parameterNumber":2,"parameterNumberName":"U-component_of_WINDS"},"data":[0,0,0,0,0,0,0,0,0,0,0,0,0,0,0,0,0,0,0,0,0,0,0,0,0,0,0,0,0,0,0,0,0,0,0,0,0,0,0,0,0,0,0,0,0,0,0,0,0,0,0,0,0,0,0,0,0,0,2.7024,2.7025,0,2.7104,2.7104,2.7105,2.71,2.7099,2.7098,2.7097,2.7178,2.7181,2.7185,0,0,0,0,0,0,0,0,0,0,0,0,0,2.687,2.6873,2.7024,2.7025,2.7026,2.7103,2.7104,2.7106,2.71,2.7099,2.7098,2.7096,2.7177,2.7181,2.7185,0,0,0,0,0,0,0,0,0,0,0,0,0,2.6942,2.6874,2.7024,2.7033,2.7034,2.7103,2.7104,2.7106,2.7101,2.7099,2.7097,2.7096,2.7176,2.7181,2.7186,2.725,0,0,2.72,2.7203,0,0,0,0,0,0,0,0,2.6938,2.6948,2.7031,2.7032,2.7034,2.709,2.708,2.7154,2.7101,2.7076,2.7097,2.7095,2.715,2.7157,2.7176,2.7254,2.7258,2.7201,2.7204,2.7206,2.7207,0,0,0,0,0,0,0,2.6933,2.6944,2.7056,2.7032,2.7034,2.7034,2.7042,2.7094,2.7122,2.7078,2.7078,2.7087,2.7151,2.7171,2.7178,2.7259,2.7201,2.7205,2.7208,2.721,2.7398,2.74,0,0,0,0,0,0,2.6926,2.694,2.7053,2.7058,2.6981,2.7038,2.7047,2.7074,2.7121,2.7127,2.7088,2.7086,2.7164,2.7172,2.7181,2.7262,2.7206,2.721,2.7213,2.7396,2.7399,2.7401,0,0,0,0,0,0,2.6923,2.6936,2.705,2.6999,2.7014,2.7042,2.7073,2.7077,2.7097,2.7129,2.7134,2.7104,2.7163,2.7174,2.7234,2.7265,2.7213,2.7217,2.7394,2.7397,2.74,2.7424,0,0,0,0,0,0,2.6918,2.6935,2.6959,2.7,2.7016,2.7101,2.7074,2.7079,2.7105,2.7103,2.7145,2.715,2.7162,2.7227,2.7239,2.7271,2.7221,2.7391,2.7395,2.7399,2.7421,2.7428,2.7434,0,0,0,0,0,2.6913,2.6962,2.696,2.6974,2.7047,2.7103,2.7112,2.7125,2.7108,2.7133,2.7154,2.7149,2.7259,2.7233,2.7246,2.728,2.7389,2.7394,2.7399,2.7418,2.7427,2.7434,0,0,0,0,0,0,2.6924,2.6968,2.6966,2.703,2.7063,2.7102,2.7134,2.7133,2.7171,2.7168,2.7182,2.7192,2.7253,2.7272,2.7242,2.7347,2.7322,2.733,2.7332,2.7341,2.7347,2.7342,2.7225,0,0,0,0,0,2.6934,2.6975,2.7011,2.7064,2.7081,2.7105,2.7129,2.7136,2.7171,2.7185,2.721,2.7245,2.7287,2.7315,2.7356,2.7424,2.7434,2.7454,2.746,2.7466,2.7472,2.7513,2.7523,2.7416,2.7416,2.7416,0,0,2.6955,2.6984,2.7009,2.7067,2.7093,2.7137,2.7116,2.7162,2.7195,2.7192,2.7251,2.7271,2.731,2.7375,2.7405,2.7394,2.7504,2.7472,2.7475,2.748,2.7519,2.7529,2.7538,2.7419,2.7419,2.7418,0,0,2.7015,2.7041,2.7089,2.7116,2.7157,2.7173,2.7184,2.7224,2.7238,2.7297,2.7297,2.7336,2.7408,2.7437,2.7462,2.7536,2.7534,2.7549,2.7583,2.7623,2.7631,2.7639,2.7668,2.7678,2.7556,2.7556,2.7556,0,2.7036,2.7101,2.7114,2.7161,2.7188,2.7188,2.7238,2.7264,2.7315,2.7334,2.732,2.7414,2.744,2.7513,2.7532,2.755,2.7566,2.7545,2.7629,2.7637,2.7644,2.7672,2.7682,2.7557,2.7557,2.7557,2.7557,0,2.7126,2.7171,2.7206,2.7257,2.7287,2.7335,2.7357,2.7386,2.7391,2.7409,2.7471,2.7503,2.7552,2.757,2.7574,2.7645,2.7637,2.7626,2.7601,2.7656,2.7682,2.7693,2.756,2.7559,2.7559,2.7558,0,0,2.7195,2.7254,2.7267,2.7291,2.7337,2.7373,2.7422,2.747,2.7496,2.7532,2.7576,2.7638,2.7629,2.7657,2.7665,2.77,2.776,2.7685,2.7686,2.77,2.7843,2.7852,2.7864,2.7759,2.7761,2.7762,2.784,0,2.7262,2.7349,2.7363,2.744,2.7484,2.7486,2.7529,2.7563,2.7581,2.7622,2.7642,2.7687,2.7671,2.7688,2.7722,2.7745,2.7789,2.774,2.78,2.7802,2.7792,2.7877,2.7886,2.7958,2.785,2.7852,2.7853,0,2.7351,2.7391,2.7473,2.7516,2.7534,2.7573,2.762,2.7658,2.7697,2.7708,2.774,2.7745,2.7798,2.7771,2.7845,2.7812,2.7837,2.7853,2.7856,2.7863,2.7832,2.7888,2.7981,2.7993,2.7869,2.7868,2.7867,0,2.7396,2.747,2.7529,2.755,2.76,2.7628,2.7651,2.7688,2.7717,2.7758,2.7777,2.7824,2.785,2.7886,2.7904,2.7882,2.7979,2.7952,2.7991,2.7991,2.8012,2.8011,2.8112,2.8026,2.8026,2.8026,2.8026,0,2.747,2.7521,2.7551,2.7587,2.7645,2.7661,2.7718,2.774,2.7773,2.7815,2.7819,2.7859,2.788,2.7923,2.7937,2.7999,2.801,2.8022,2.8025,2.8022,2.8021,2.804,2.8036,2.8029,2.8028,2.8027,2.8027,0,2.753,2.7552,2.7617,2.766,2.7672,2.7713,2.7751,2.7787,2.7806,2.786,2.7873,2.7904,2.7955,2.7977,2.8039,2.8049,2.812,2.8119,2.8107,2.8109,2.8148,2.8145,2.8266,2.8284,2.8184,2.8185,2.8186,0,2.7576,2.7616,2.7664,2.7692,2.7716,2.7761,2.7792,2.781,2.7841,2.789,2.7922,2.7973,2.8015,2.8097,2.8126,2.8175,2.8176,2.8215,2.8183,2.818,2.8179,2.8177,2.8183,2.8221,2.8222,2.8223,2.8224,0,2.7657,2.7667,2.771,2.7758,2.7794,2.7833,2.787,2.7894,2.7918,2.7953,2.8006,2.8039,2.8104,2.8156,2.8207,2.8231,2.8233,2.8234,2.8246,2.8244,2.8236,2.8243,2.8125,2.8231,2.823,2.823,2.8229,2.8229,2.7714,2.775,2.779,2.7839,2.7869,2.7905,2.7942,2.7967,2.8011,2.8066,2.8074,2.8131,2.8172,2.8241,2.8267,2.8313,2.8304,2.832,2.8325,2.8329,2.8333,2.8228,2.8322,2.8322,2.8322,2.8322,2.8322,0,2.7797,2.7823,2.7868,2.7921,2.796,2.7958,2.8,2.8033,2.8084,2.8121,2.8163,2.8226,2.8277,2.831,2.8362,2.8393,2.8395,2.8406,2.8405,2.8411,2.8338,2.8323,2.8404,2.8404,2.8404,2.8404,2.8404,2.8404,2.7845,2.7906,2.7921,2.7999,2.8025,2.8082,2.8106,2.814,2.8171,2.824,2.8283,2.8304,2.8341,2.8396,2.8444,2.8452,2.8472,2.8485,2.8493,2.8424,2.8416,2.8408,2.8394,2.8488,2.8488,2.8563,2.8563,2.8564]},{"header":{"parameterUnit":"m.s-1","parameterCategory":1,"la1":30.2991,"la2":30.254,"lo1":-89.0895,"lo2":-89.0444,"dy":0.0017,"dx":0.0017,"nx":28,"ny":28,"refTime":"2025-11-08T03:00:00:Z","depth":0,"parameterNumber":3,"parameterNumberName":"V-component_of_WINDS"},"data":[0,0,0,0,0,0,0,0,0,0,0,0,0,0,0,0,0,0,0,0,0,0,0,0,0,0,0,0,0,0,0,0,0,0,0,0,0,0,0,0,0,0,0,0,0,0,0,0,0,0,0,0,0,0,0,0,0,0,-5.9081,-5.9082,0,-5.9148,-5.9148,-5.9149,-5.9137,-5.9136,-5.9135,-5.9134,-5.9198,-5.92,-5.9203,0,0,0,0,0,0,0,0,0,0,0,0,0,-5.894,-5.8943,-5.9081,-5.9082,-5.9082,-5.9148,-5.9148,-5.9149,-5.9138,-5.9136,-5.9135,-5.9133,-5.9197,-5.92,-5.9203,0,0,0,0,0,0,0,0,0,0,0,0,0,-5.9004,-5.8944,-5.9081,-5.9085,-5.9086,-5.9147,-5.9148,-5.915,-5.9138,-5.9136,-5.9134,-5.9133,-5.9196,-5.92,-5.9204,-5.9264,0,0,-5.9216,-5.9218,0,0,0,0,0,0,0,0,-5.9,-5.9009,-5.9083,-5.9084,-5.9086,-5.9133,-5.9122,-5.9188,-5.9138,-5.9118,-5.9134,-5.9132,-5.9177,-5.9183,-5.9199,-5.9267,-5.927,-5.9217,-5.9219,-5.9221,-5.9222,0,0,0,0,0,0,0,-5.8996,-5.9006,-5.9107,-5.9084,-5.9086,-5.9082,-5.9089,-5.9135,-5.9156,-5.9119,-5.9119,-5.9127,-5.9177,-5.9195,-5.92,-5.9271,-5.9217,-5.922,-5.9223,-5.9225,-5.9395,-5.9397,0,0,0,0,0,0,-5.8991,-5.9002,-5.9105,-5.9109,-5.9038,-5.9086,-5.9094,-5.9119,-5.9156,-5.916,-5.9129,-5.9126,-5.9189,-5.9195,-5.9202,-5.9277,-5.9221,-5.9225,-5.9227,-5.9393,-5.9395,-5.9397,0,0,0,0,0,0,-5.8988,-5.9,-5.9102,-5.9056,-5.9068,-5.909,-5.9119,-5.9121,-5.9139,-5.9163,-5.9166,-5.9143,-5.9187,-5.9196,-5.925,-5.9279,-5.9227,-5.9231,-5.939,-5.9393,-5.9396,-5.9426,0,0,0,0,0,0,-5.8984,-5.8999,-5.9022,-5.9056,-5.9071,-5.9149,-5.912,-5.9124,-5.9147,-5.9144,-5.9177,-5.918,-5.9187,-5.9244,-5.9254,-5.9284,-5.9234,-5.9388,-5.9392,-5.9395,-5.9422,-5.943,-5.9436,0,0,0,0,0,-5.8979,-5.9026,-5.9024,-5.9036,-5.9101,-5.9151,-5.9159,-5.9167,-5.9149,-5.9173,-5.9189,-5.9179,-5.9274,-5.9249,-5.9261,-5.9292,-5.9386,-5.9391,-5.9395,-5.9419,-5.9428,-5.9436,0,0,0,0,0,0,-5.8993,-5.9031,-5.9028,-5.9089,-5.9117,-5.9149,-5.9179,-5.9176,-5.9208,-5.9205,-5.9212,-5.9219,-5.9273,-5.9288,-5.9259,-5.9354,-5.9327,-5.9335,-5.9342,-5.9351,-5.9357,-5.9352,-5.9237,0,0,0,0,0,-5.9004,-5.9042,-5.9073,-5.9123,-5.9138,-5.9156,-5.9178,-5.9182,-5.9211,-5.9222,-5.9242,-5.9269,-5.9306,-5.9329,-5.9363,-5.9425,-5.9432,-5.9452,-5.9459,-5.9465,-5.947,-5.9505,-5.9515,-5.9412,-5.9412,-5.9412,0,0,-5.9025,-5.9051,-5.9074,-5.9127,-5.9149,-5.9189,-5.9166,-5.9208,-5.9237,-5.9228,-5.9281,-5.9296,-5.9327,-5.9386,-5.9412,-5.9399,-5.9501,-5.947,-5.9474,-5.9477,-5.9511,-5.9521,-5.9529,-5.9415,-5.9415,-5.9414,0,0,-5.9084,-5.9107,-5.9153,-5.9177,-5.9212,-5.9225,-5.9236,-5.9269,-5.928,-5.9333,-5.9328,-5.9363,-5.9424,-5.9447,-5.9467,-5.9539,-5.9532,-5.955,-5.9584,-5.9619,-5.9627,-5.9634,-5.966,-5.967,-5.9556,-5.9556,-5.9556,0,-5.9106,-5.9166,-5.9176,-5.922,-5.9244,-5.9241,-5.9287,-5.9309,-5.9353,-5.9369,-5.9355,-5.9435,-5.9455,-5.9519,-5.9538,-5.9553,-5.9566,-5.9546,-5.9625,-5.9633,-5.9639,-5.9665,-5.9674,-5.9558,-5.9558,-5.9558,-5.9557,0,-5.9191,-5.9234,-5.9266,-5.9312,-5.9339,-5.9384,-5.94,-5.9427,-5.9429,-5.9443,-5.9498,-5.9523,-5.9564,-5.958,-5.9581,-5.9645,-5.9636,-5.9624,-5.9597,-5.9651,-5.9675,-5.9684,-5.9561,-5.956,-5.956,-5.9559,0,0,-5.9259,-5.9313,-5.9324,-5.9346,-5.9386,-5.9419,-5.9464,-5.9506,-5.9529,-5.956,-5.9598,-5.9652,-5.9642,-5.9664,-5.9669,-5.9699,-5.9756,-5.9683,-5.9684,-5.9696,-5.9829,-5.9838,-5.9849,-5.9752,-5.9754,-5.9755,-5.9826,0,-5.9322,-5.9404,-5.9416,-5.9487,-5.9527,-5.9526,-5.9565,-5.9594,-5.9609,-5.9644,-5.9659,-5.9698,-5.9681,-5.9695,-5.9725,-5.9742,-5.9782,-5.9737,-5.9786,-5.9788,-5.9778,-5.9861,-5.987,-5.9936,-5.9835,-5.9837,-5.9838,0,-5.9406,-5.9443,-5.9519,-5.9557,-5.9574,-5.9609,-5.965,-5.9684,-5.9717,-5.9726,-5.9753,-5.9755,-5.9801,-5.9774,-5.9838,-5.9807,-5.9828,-5.984,-5.9843,-5.9847,-5.9816,-5.9867,-5.9956,-5.9966,-5.9853,-5.9852,-5.9851,0,-5.9449,-5.9517,-5.9572,-5.9591,-5.9636,-5.9661,-5.9681,-5.9712,-5.9738,-5.9773,-5.9789,-5.9829,-5.985,-5.9881,-5.9893,-5.9872,-5.9957,-5.993,-5.9965,-5.9965,-5.9982,-5.998,-6.0075,-5.9996,-5.9996,-5.9996,-5.9995,0,-5.9518,-5.9565,-5.9593,-5.9626,-5.9679,-5.9692,-5.9744,-5.9762,-5.9791,-5.9828,-5.9829,-5.9863,-5.9878,-5.9914,-5.9924,-5.9977,-5.9986,-5.9994,-5.9996,-5.9994,-5.9993,-6.0007,-6.0002,-5.9998,-5.9998,-5.9997,-5.9997,0,-5.9574,-5.9594,-5.9654,-5.9694,-5.9705,-5.9742,-5.9775,-5.9807,-5.9823,-5.987,-5.9882,-5.9906,-5.995,-5.9966,-6.0017,-6.0024,-6.0085,-6.0083,-6.0074,-6.0075,-6.0109,-6.0105,-6.0216,-6.0231,-6.0142,-6.0143,-6.0143,0,-5.9617,-5.9653,-5.9697,-5.9724,-5.9745,-5.9786,-5.9813,-5.9829,-5.9856,-5.9899,-5.9926,-5.997,-6.0006,-6.0075,-6.0097,-6.0137,-6.0136,-6.0172,-6.0142,-6.0139,-6.0137,-6.0135,-6.0139,-6.0177,-6.0178,-6.0179,-6.018,0,-5.9691,-5.97,-5.9739,-5.9784,-5.9816,-5.9851,-5.9885,-5.9905,-5.9926,-5.9957,-6.0003,-6.0031,-6.0086,-6.013,-6.0172,-6.0191,-6.0189,-6.019,-6.02,-6.0197,-6.0191,-6.0195,-6.0089,-6.0187,-6.0186,-6.0185,-6.0185,-6.0185,-5.9741,-5.9774,-5.9812,-5.9856,-5.9884,-5.9916,-5.995,-5.9971,-6.001,-6.0058,-6.0064,-6.0114,-6.0148,-6.0204,-6.0226,-6.0264,-6.0254,-6.0269,-6.0272,-6.0276,-6.0278,-6.0186,-6.0272,-6.0272,-6.0271,-6.0271,-6.0271,0,-5.9815,-5.984,-5.9882,-5.993,-5.9966,-5.9964,-6.0002,-6.0031,-6.0075,-6.0108,-6.0144,-6.0198,-6.0241,-6.0267,-6.0311,-6.0336,-6.0336,-6.0347,-6.0345,-6.0349,-6.0285,-6.0272,-6.0346,-6.0346,-6.0346,-6.0346,-6.0346,-6.0346,-5.9858,-5.9915,-5.9929,-5.9999,-6.0024,-6.0074,-6.0096,-6.0126,-6.0152,-6.0213,-6.025,-6.0267,-6.0298,-6.0344,-6.0383,-6.039,-6.0406,-6.0417,-6.0423,-6.0361,-6.0354,-6.0346,-6.0334,-6.0421,-6.0421,-6.0484,-6.0485,-6.0485]}]]